Overview Statistics Trail Chart Weather Telemetry Raw packets
 

This is the latest recevied weather packets stored in our database for station/object W0WC. If no packets are shown the sender has not sent any weather packets the latest 10 day(s).

<< 98 99 100 101 102 103 104 >>
Time Temp. Humidity Pressure Rain* Wind** Luminosity Snow
1787954942 35° C 28% 1018.3 hPa 0 mm - 323 W/m² -
1787954639 35° C 28% 1018.4 hPa 0 mm - 337 W/m² -
1787954338 35° C 28% 1018.5 hPa 0 mm - 352 W/m² -
1787954033 35° C 28% 1018.4 hPa 0 mm - 366 W/m² -
1787953732 35° C 28% 1018.3 hPa 0 mm - 383 W/m² -
1787953427 35° C 29% 1018.5 hPa 0 mm - 394 W/m² -
1787953125 35° C 28% 1018.6 hPa 0 mm - 409 W/m² -
1787952824 35° C 29% 1018.5 hPa 0 mm - 425 W/m² -
1787952519 34.44° C 29% 1018.5 hPa 0 mm - 440 W/m² -
1787952217 34.44° C 29% 1018.9 hPa 0 mm - 453 W/m² -
1787951914 35° C 29% 1018.8 hPa 0 mm - 466 W/m² -
1787951610 35.56° C 29% 1019 hPa 0 mm - 479 W/m² -
1787951306 35° C 30% 1018.8 hPa 0 mm - 493 W/m² -
1787951002 35° C 29% 1019 hPa 0 mm - 504 W/m² -
1787950702 35° C 30% 1019.1 hPa 0 mm - 517 W/m² -
1787950398 34.44° C 31% 1019.1 hPa 0 mm - 526 W/m² -
1787950094 34.44° C 30% 1019.1 hPa 0 mm - 537 W/m² -
1787949789 33.89° C 32% 1019.3 hPa 0 mm - 550 W/m² -
1787949489 34.44° C 31% 1019.4 hPa 0 mm - 561 W/m² -
1787949184 33.89° C 31% 1019.4 hPa 0 mm - 572 W/m² -
1787948880 33.89° C 31% 1019.5 hPa 0 mm - 582 W/m² -
1787948575 34.44° C 32% 1019.6 hPa 0 mm - 591 W/m² -
1787948280 33.89° C 33% 1019.5 hPa 0 mm - 602 W/m² -
1787947970 33.89° C 33% 1019.5 hPa 0 mm - 613 W/m² -
1787947664 33.89° C 33% 1019.6 hPa 0 mm - 620 W/m² -

* Rain latest hour (hover to see other rain measurements)
** Current wind speed in m/s (hover to see current wind gust speed)